Flag for Brazil Weather past 2 weeks in Rio Grande, Rio Grande do Sul, Brazil

Now
70 °F

Partly sunny.


Feels Like: 70 °F
Forecast: 67 / 75 °F
Wind: 6 mph from Southwest

Location: Pelotas Airport

Current Time: Apr 1, 2015 at 10:36:58 AM

Latest Report: Apr 1, 2015 at 10:00 AM


Visibility: N/A

Pressure: 30.04 "Hg

Humidity: 100%

Dew point: 70 °F

Location of Rio GrandeLocation

Historic Weather in Rio Grande — Graph

°F

Rio Grande temperature yesterday

Maximum temperature yesterday: 82 °F (at 2:00 PM)
Minimum temperature yesterday: 63 °F (at 9:00 PM)
Average temperature yesterday: 72 °F

Past Weeks' High & Low Weather Summary

 TemperatureHumidityPressure
High91 °F (Mar 20, 1:00 PM)100% (Mar 18, 2:00 AM)30.15 "Hg (Mar 18, 2:00 AM)
Low57 °F (Mar 23, 6:00 AM)38% (Mar 19, 3:00 PM)29.74 "Hg (Mar 20, 4:00 PM)
Average71 °F83%30.00 "Hg
* Reported Mar 17 9:00 AM — Apr 1 9:00 AM, Rio Grande, Weather by CustomWeather, © 2015

Note: Actual official high and low records may vary slightly from our data, if they occured in-between our weather recording intervals... More about our weather records

Advertising

Rio Grande weather history for previous 24 hours

 ConditionsComfort  
Time TempWeatherWind HumidityBarometerVisibility
9:00 AM
Wed, Apr 1
68 °FLow clouds.5 mph100%30.04 "HgN/A
8:00 AM63 °FPassing clouds.3 mph100%30.04 "HgN/A
7:00 AM59 °FPassing clouds.5 mph100%30.01 "Hg5 mi
6:00 AM59 °FFog.3 mph100%30.01 "Hg3 mi
5:00 AM59 °FFog.3 mph100%29.98 "Hg1 mi
4:00 AM59 °FClear.2 mph100%29.98 "Hg6 mi
3:00 AM61 °FClear.2 mph100%29.98 "Hg10 mi
2:00 AM61 °FClear.3 mph100%29.98 "Hg10 mi
1:00 AM61 °FClear.3 mph100%29.98 "Hg10 mi
12:00 AM61 °FClear.3 mph100%29.98 "Hg10 mi
11:00 PM
Tue, Mar 31
63 °FClear.3 mph100%29.98 "Hg10 mi
10:00 PM63 °FClear.2 mph100%29.98 "Hg10 mi
9:00 PM63 °FMostly cloudy.6 mph100%29.98 "HgN/A
8:00 PM72 °FThunderstorms. Passing clouds.9 mph94%29.95 "Hg6 mi
7:00 PM72 °FPassing clouds.3 mph83%29.89 "HgN/A
6:00 PM75 °FPassing clouds.3 mph65%29.89 "HgN/A
5:00 PM81 °FPassing clouds.6 mph54%29.89 "HgN/A
4:00 PM81 °FScattered clouds.6 mph54%29.89 "HgN/A
3:00 PM82 °FScattered clouds.7 mph51%29.89 "HgN/A
2:00 PM82 °FScattered clouds.9 mph58%29.89 "HgN/A
1:00 PM81 °FScattered clouds.10 mph62%29.92 "HgN/A
12:00 PM79 °FPartly sunny.7 mph65%29.92 "HgN/A
11:00 AM77 °FPartly sunny.14 mph74%29.95 "HgN/A
10:00 AM73 °FScattered clouds.14 mph89%29.95 "HgN/A
Weather by CustomWeather, © 2015

See weather overviewHow to use our weather pages